Time,TemperatureF,DewpointF,PressureIn,WindDirection,WindDirectionDegrees,WindSpeedMPH,WindSpeedGustMPH,Humidity,HourlyPrecipIn,Conditions,Clouds,dailyrainin,SolarRadiationWatts/m^2,SoftwareType,DateUTC
2013-10-23 00:04:00,30.0,26.0,-100.00,West,276,5.0,10.0,85,0.00,,,0.06,0.000000,,2013-10-23 05:04:00,
2013-10-23 00:43:00,30.0,25.0,-100.00,WNW,294,8.0,14.0,80,0.00,,,0.06,0.000000,,2013-10-23 05:43:00,
2013-10-23 00:53:00,30.0,25.0,-100.00,WNW,294,8.0,14.0,80,0.00,,,0.06,0.000000,,2013-10-23 05:53:00,
2013-10-23 01:02:00,30.0,25.0,-100.00,WNW,294,8.0,14.0,80,0.00,,,0.06,0.000000,,2013-10-23 06:02:00,
2013-10-23 01:12:00,30.0,25.0,-100.00,WNW,294,8.0,14.0,80,0.00,,,0.06,0.000000,,2013-10-23 06:12:00,
2013-10-23 01:42:00,30.0,26.0,-100.00,WNW,292,9.0,15.0,84,0.00,,,0.06,0.000000,,2013-10-23 06:42:00,
2013-10-23 01:52:00,30.0,26.0,-100.00,WNW,292,9.0,15.0,84,0.00,,,0.06,0.000000,,2013-10-23 06:52:00,
2013-10-23 02:01:00,30.0,26.0,-100.00,WNW,292,9.0,15.0,84,0.00,,,0.06,0.000000,,2013-10-23 07:01:00,
2013-10-23 02:12:00,30.0,26.0,-100.00,WNW,292,9.0,15.0,84,0.00,,,0.06,0.000000,,2013-10-23 07:12:00,
2013-10-23 02:42:00,29.0,26.0,-100.00,NW,304,7.0,12.0,90,0.00,,,0.06,0.000000,,2013-10-23 07:42:00,
2013-10-23 02:52:00,29.0,26.0,-100.00,NW,304,7.0,12.0,90,0.00,,,0.06,0.000000,,2013-10-23 07:52:00,
2013-10-23 03:02:00,29.0,26.0,-100.00,NW,304,7.0,12.0,90,0.00,,,0.06,0.000000,,2013-10-23 08:02:00,
2013-10-23 03:12:00,29.0,26.0,-100.00,NW,304,7.0,12.0,90,0.00,,,0.06,0.000000,,2013-10-23 08:12:00,
2013-10-23 03:42:00,29.0,27.0,-100.00,WNW,297,7.0,11.0,93,0.00,,,0.06,0.000000,,2013-10-23 08:42:00,
2013-10-23 03:53:00,29.0,27.0,-100.00,WNW,297,7.0,11.0,93,0.00,,,0.06,0.000000,,2013-10-23 08:53:00,
2013-10-23 04:02:00,29.0,27.0,-100.00,WNW,297,7.0,11.0,93,0.00,,,0.06,0.000000,,2013-10-23 09:02:00,
2013-10-23 04:12:00,29.0,27.0,-100.00,WNW,297,7.0,11.0,93,0.00,,,0.06,0.000000,,2013-10-23 09:12:00,
2013-10-23 04:43:00,29.0,27.0,-100.00,NW,308,8.0,12.0,93,0.00,,,0.06,0.000000,,2013-10-23 09:43:00,
2013-10-23 04:53:00,29.0,27.0,-100.00,NW,308,8.0,12.0,93,0.00,,,0.06,0.000000,,2013-10-23 09:53:00,
2013-10-23 05:03:00,29.0,27.0,-100.00,NW,308,8.0,12.0,93,0.00,,,0.06,0.000000,,2013-10-23 10:03:00,
2013-10-23 05:12:00,29.0,27.0,-100.00,NW,308,8.0,12.0,93,0.00,,,0.06,0.000000,,2013-10-23 10:12:00,
2013-10-23 05:43:00,29.0,24.0,-100.00,NNW,328,8.0,14.0,81,0.00,,,0.06,0.000000,,2013-10-23 10:43:00,
2013-10-23 05:53:00,29.0,24.0,-100.00,NNW,328,8.0,14.0,81,0.00,,,0.06,0.000000,,2013-10-23 10:53:00,
2013-10-23 06:02:00,29.0,24.0,-100.00,NNW,328,8.0,14.0,81,0.00,,,0.06,0.000000,,2013-10-23 11:02:00,
2013-10-23 06:12:00,29.0,24.0,-100.00,NNW,328,8.0,14.0,81,0.00,,,0.06,0.000000,,2013-10-23 11:12:00,
2013-10-23 06:42:00,28.0,23.0,-100.00,NW,312,5.0,13.0,80,0.00,,,0.06,1.000000,,2013-10-23 11:42:00,
2013-10-23 06:52:00,28.0,23.0,-100.00,NW,312,5.0,13.0,80,0.00,,,0.06,1.000000,,2013-10-23 11:52:00,
2013-10-23 07:01:00,28.0,23.0,-100.00,NW,312,5.0,13.0,80,0.00,,,0.06,1.000000,,2013-10-23 12:01:00,
2013-10-23 07:12:00,28.0,23.0,-100.00,NW,312,5.0,13.0,80,0.00,,,0.06,1.000000,,2013-10-23 12:12:00,
2013-10-23 07:42:00,28.0,23.0,-100.00,NW,312,7.0,11.0,82,0.00,,,0.06,1.000000,,2013-10-23 12:42:00,
2013-10-23 07:52:00,28.0,23.0,-100.00,NW,312,7.0,11.0,82,0.00,,,0.06,1.000000,,2013-10-23 12:52:00,
2013-10-23 08:01:00,28.0,23.0,-100.00,NW,312,7.0,11.0,82,0.00,,,0.06,1.000000,,2013-10-23 13:01:00,
2013-10-23 08:12:00,28.0,23.0,-100.00,NW,312,7.0,11.0,82,0.00,,,0.06,1.000000,,2013-10-23 13:12:00,
2013-10-23 08:43:00,28.0,23.0,-100.00,NW,313,7.0,11.0,81,0.00,,,0.06,5.000000,,2013-10-23 13:43:00,
2013-10-23 08:52:00,28.0,23.0,-100.00,NW,313,7.0,11.0,81,0.00,,,0.06,5.000000,,2013-10-23 13:52:00,
2013-10-23 09:02:00,28.0,23.0,-100.00,NW,313,7.0,11.0,81,0.00,,,0.06,5.000000,,2013-10-23 14:02:00,
2013-10-23 09:11:00,28.0,23.0,-100.00,NW,313,7.0,11.0,81,0.00,,,0.06,5.000000,,2013-10-23 14:11:00,
2013-10-23 09:42:00,29.0,25.0,-100.00,NW,310,7.0,12.0,85,0.00,,,0.06,43.000000,,2013-10-23 14:42:00,
2013-10-23 09:52:00,29.0,25.0,-100.00,NW,310,7.0,12.0,85,0.00,,,0.06,43.000000,,2013-10-23 14:52:00,
2013-10-23 10:01:00,29.0,25.0,-100.00,NW,310,7.0,12.0,85,0.00,,,0.06,43.000000,,2013-10-23 15:01:00,
2013-10-23 10:11:00,29.0,25.0,-100.00,NW,310,7.0,12.0,85,0.00,,,0.06,43.000000,,2013-10-23 15:11:00,
2013-10-23 10:43:00,30.0,21.0,-100.00,NW,318,11.0,18.0,70,0.00,,,0.01,139.000000,,2013-10-23 15:43:00,
2013-10-23 10:53:00,30.0,21.0,-100.00,NW,318,11.0,18.0,70,0.00,,,0.01,139.000000,,2013-10-23 15:53:00,
2013-10-23 11:03:00,30.0,21.0,-100.00,NW,318,11.0,18.0,70,0.00,,,0.01,139.000000,,2013-10-23 16:03:00,
2013-10-23 11:12:00,30.0,21.0,-100.00,NW,318,11.0,18.0,70,0.00,,,0.01,139.000000,,2013-10-23 16:12:00,
2013-10-23 11:43:00,30.0,22.0,-100.00,NW,321,13.0,22.0,73,0.00,,,0.01,162.000000,,2013-10-23 16:43:00,
2013-10-23 11:53:00,30.0,22.0,-100.00,NW,321,13.0,22.0,73,0.00,,,0.01,162.000000,,2013-10-23 16:53:00,
2013-10-23 12:03:00,30.0,22.0,-100.00,NW,321,13.0,22.0,73,0.00,,,0.01,162.000000,,2013-10-23 17:03:00,
2013-10-23 12:12:00,30.0,22.0,-100.00,NW,321,13.0,22.0,73,0.00,,,0.01,162.000000,,2013-10-23 17:12:00,
2013-10-23 12:44:00,32.0,21.0,-100.00,NW,311,13.0,24.0,64,0.00,,,0.00,347.000000,,2013-10-23 17:44:00,
2013-10-23 12:52:00,32.0,21.0,-100.00,NW,311,13.0,24.0,64,0.00,,,0.00,347.000000,,2013-10-23 17:52:00,
2013-10-23 13:02:00,32.0,21.0,-100.00,NW,311,13.0,24.0,64,0.00,,,0.00,347.000000,,2013-10-23 18:02:00,
2013-10-23 13:12:00,32.0,21.0,-100.00,NW,311,13.0,24.0,64,0.00,,,0.00,347.000000,,2013-10-23 18:12:00,
2013-10-23 14:42:00,30.0,21.0,-100.00,NW,317,9.0,19.0,70,-99.99,,,0.00,174.000000,,2013-10-23 19:42:00,
2013-10-23 14:53:00,30.0,21.0,-100.00,NW,317,9.0,19.0,70,-99.99,,,0.00,174.000000,,2013-10-23 19:53:00,
2013-10-23 15:02:00,30.0,21.0,-100.00,NW,317,9.0,19.0,70,-99.99,,,0.00,174.000000,,2013-10-23 20:02:00,
2013-10-23 15:11:00,30.0,21.0,-100.00,NW,317,9.0,19.0,70,-99.99,,,0.00,174.000000,,2013-10-23 20:11:00,
2013-10-23 15:42:00,31.0,22.0,-100.00,NW,307,8.0,16.0,69,0.00,,,0.00,127.000000,,2013-10-23 20:42:00,
2013-10-23 15:52:00,31.0,22.0,-100.00,NW,307,8.0,16.0,69,0.00,,,0.00,127.000000,,2013-10-23 20:52:00,
2013-10-23 16:02:00,31.0,22.0,-100.00,NW,307,8.0,16.0,69,0.00,,,0.00,127.000000,,2013-10-23 21:02:00,
2013-10-23 16:12:00,31.0,22.0,-100.00,NW,307,8.0,16.0,69,0.00,,,0.00,127.000000,,2013-10-23 21:12:00,
2013-10-23 16:13:00,31.0,22.0,-100.00,NW,322,11.0,19.0,70,0.00,,,0.00,75.000000,,2013-10-23 21:13:00,
2013-10-23 16:43:00,31.0,22.0,-100.00,NW,322,11.0,19.0,70,0.00,,,0.00,75.000000,,2013-10-23 21:43:00,
2013-10-23 16:54:00,31.0,22.0,-100.00,NW,322,11.0,19.0,70,0.00,,,0.00,75.000000,,2013-10-23 21:54:00,
2013-10-23 17:04:00,31.0,22.0,-100.00,NW,322,11.0,19.0,70,0.00,,,0.00,75.000000,,2013-10-23 22:04:00,
2013-10-23 17:43:00,31.0,22.0,-100.00,NW,320,8.0,17.0,70,0.00,,,0.00,44.000000,,2013-10-23 22:43:00,
2013-10-23 17:54:00,31.0,22.0,-100.00,NW,320,8.0,17.0,70,0.00,,,0.00,44.000000,,2013-10-23 22:54:00,
2013-10-23 18:03:00,31.0,22.0,-100.00,NW,320,8.0,17.0,70,0.00,,,0.00,44.000000,,2013-10-23 23:03:00,
2013-10-23 18:12:00,31.0,22.0,-100.00,NW,320,8.0,17.0,70,0.00,,,0.00,44.000000,,2013-10-23 23:12:00,
2013-10-23 18:43:00,31.0,23.0,-100.00,NW,321,8.0,13.0,73,0.00,,,0.00,13.000000,,2013-10-23 23:43:00,
2013-10-23 18:53:00,31.0,23.0,-100.00,NW,321,8.0,13.0,73,0.00,,,0.00,13.000000,,2013-10-23 23:53:00,
2013-10-23 19:02:00,31.0,23.0,-100.00,NW,321,8.0,13.0,73,0.00,,,0.00,13.000000,,2013-10-24 00:02:00,
2013-10-23 19:12:00,31.0,23.0,-100.00,NW,321,8.0,13.0,73,0.00,,,0.00,13.000000,,2013-10-24 00:12:00,
2013-10-23 19:43:00,31.0,25.0,-100.00,NW,310,6.0,18.0,78,0.00,,,0.00,1.000000,,2013-10-24 00:43:00,
2013-10-23 19:52:00,31.0,25.0,-100.00,NW,310,6.0,18.0,78,0.00,,,0.00,1.000000,,2013-10-24 00:52:00,
2013-10-23 20:01:00,31.0,25.0,-100.00,NW,310,6.0,18.0,78,0.00,,,0.00,1.000000,,2013-10-24 01:01:00,
2013-10-23 20:11:00,31.0,25.0,-100.00,NW,310,6.0,18.0,78,0.00,,,0.00,1.000000,,2013-10-24 01:11:00,
2013-10-23 20:42:00,30.0,22.0,-100.00,NW,318,9.0,14.0,73,0.00,,,0.00,0.000000,,2013-10-24 01:42:00,
2013-10-23 20:52:00,30.0,22.0,-100.00,NW,318,9.0,14.0,73,0.00,,,0.00,0.000000,,2013-10-24 01:52:00,
2013-10-23 21:02:00,30.0,22.0,-100.00,NW,318,9.0,14.0,73,0.00,,,0.00,0.000000,,2013-10-24 02:02:00,
2013-10-23 21:12:00,30.0,22.0,-100.00,NW,318,9.0,14.0,73,0.00,,,0.00,0.000000,,2013-10-24 02:12:00,
2013-10-23 21:52:00,30.0,24.0,-100.00,NNW,327,10.0,17.0,78,0.00,,,0.00,1.000000,,2013-10-24 02:52:00,
2013-10-23 22:02:00,30.0,24.0,-100.00,NNW,327,10.0,17.0,78,0.00,,,0.00,1.000000,,2013-10-24 03:02:00,
2013-10-23 22:12:00,30.0,24.0,-100.00,NNW,327,10.0,17.0,78,0.00,,,0.00,1.000000,,2013-10-24 03:12:00,
2013-10-23 22:13:00,30.0,24.0,-100.00,NNW,329,10.0,17.0,78,0.00,,,0.00,0.000000,,2013-10-24 03:13:00,
2013-10-23 22:44:00,30.0,24.0,-100.00,NNW,329,10.0,17.0,78,0.00,,,0.00,0.000000,,2013-10-24 03:44:00,
2013-10-23 22:55:00,30.0,24.0,-100.00,NNW,329,10.0,17.0,78,0.00,,,0.00,0.000000,,2013-10-24 03:55:00,
2013-10-23 23:04:00,30.0,24.0,-100.00,NNW,329,10.0,17.0,78,0.00,,,0.00,0.000000,,2013-10-24 04:04:00,
2013-10-23 23:13:00,30.0,25.0,-100.00,NW,319,9.0,17.0,81,0.00,,,0.00,1.000000,,2013-10-24 04:13:00,
2013-10-23 23:44:00,30.0,25.0,-100.00,NW,319,9.0,17.0,81,0.00,,,0.00,1.000000,,2013-10-24 04:44:00,
2013-10-23 23:54:00,30.0,25.0,-100.00,NW,319,9.0,17.0,81,0.00,,,0.00,1.000000,,2013-10-24 04:54:00,